GGSE 3 DEB, 44043

Orbit data source: Space-Track

GGSE 3 DEB, 44043 is space debris in LEO originally from a launch on Tue, 09 Mar 1965 UTC launched from the Air Force Western Test Range (AFWTR). Debris objects in space refer to the collection of defunct objects orbiting the Earth. Examples of debris include non-operational satellites, rocket bodies, and fragments generated from explosions, collisions, or faulty payload assembly.

Loading next visibility...
Identifier
44043, 1965-016L
Orbit
LEO
Country
Flag of USUS
Related business
Manufacturer
Unknown
Mission
Spacecraft
Bus & Motor
Unknown
Mass
Unknown
Launch date (UTC)
1965-03-09 (61 years ago)
Launch vehicle
Unknown
Launch site
Air Force Western Test Range (AFWTR)
Object type
Payload
Rocket body
Debris
Shape & HBR
Unknown shape, 0.1 m
Radar Cross Section
Small (<0.1 m²)

Expand to show TLE details & history
Last TLE update: 7 hours ago

TLE from 7 hours ago
0 GGSE 3 DEB
1 44043U 65016L   25290.82275442  .00001080  00000-0  71721-3 0  9995
2 44043  70.0732 105.9431 0021477 271.4182  88.4468 14.03852535341737
Epoch: 2025-10-17T19:44Z
TLE epoch observation values (Epoch: 2025-10-17T19:44:45.981Z)
Latitude
-0.00004°
Longitude
143.18889°
Altitude
882.422 km
Speed
7.412 km/s
True Right ascension
07h 03m 46s
True Declination
0° 00' 00"
Sunlit
Object was in daylight at epoch
Visualization orbit readout
Latitude
Unknown
Longitude
Unknown
Altitude
Unknown
Speed
Unknown
Apparent Right ascension
Unknown
Apparent Declination
Unknown
Sunlit
N/A
Visualization observer readout
Local Sidereal Time
21:42:13
Azimuth
Unknown
Elevation
Unknown
Doppler factor
Unknown
Orbital elements
Apogee altitude
894.098 km
Perigee altitude
862.928 km
Semi-major axis
7,256.65 km
Eccentricity
0.00215
Inclination
70.0732°
RAAN
105.9431°
Arg. of periapsis
271.4182°
True anomaly
88.69284°
Mean anomaly
88.4468°
Eccentric anomaly
88.56982°
Mean motion
3.51107 °/min
Orbital period
102.53 mins
BSTAR
0.00071721
Loading maneuver chart data...
Computing Atmospheric mass density...
Loading historical data...
Loading historical data...
Loading historical data...
Loading historical data...
Loading historical data...
Loading historical data...
Loading historical data...

Documentation

Showing up to 5 results
|